Terminal Aerodrome Forecast
Issued by NWS Tuscon, AZ

Home | Current Version | Previous Version | Text Only | Print | Product List | Glossary On
Versions: 1 2 3 4 5 6 7 8 9 10 11 12
000
FTUS45 KTWC 272300
TAFDUG
TAF
KDUG 272331Z 2800/2824 08012KT P6SM SKC
     FM280300 05007KT P6SM SKC
     FM280700 VRB04KT P6SM FEW250
     FM281700 18006KT P6SM SCT250=

USA.gov is the U.S. government's official web portal to all federal, state and local government web resources and services.